| time (UTC) | temp C | wind direction | speed KPH | gust KPH | rain 1hr cm | rain 24hr cm | rain mn cm | humidity % | barometer mb |
| 20260505030036 | 17 | 270 | 9.7 | 25.7 | 0.00 | 0.00 | 0.00 | 32 | 1000.0 |
| 20260505024602 | 18 | 320 | 8.0 | 29.0 | 0.00 | 0.00 | 0.00 | 33 | 999.7 |
| 20260505023042 | 18 | 283 | 11.3 | 22.5 | 0.00 | 0.00 | 0.00 | 33 | 999.6 |
| 20260505021549 | 19 | 328 | 12.9 | 32.2 | 0.00 | 0.00 | 0.00 | 34 | 999.4 |
| 20260505020044 | 20 | 319 | 8.0 | 22.5 | 0.00 | 0.00 | 0.00 | 36 | 999.0 |
| 20260505014538 | 20 | 335 | 6.4 | 17.7 | 0.00 | 0.00 | 0.00 | 36 | 998.6 |
| 20260505013036 | 21 | 309 | 8.0 | 17.7 | 0.00 | 0.00 | 0.00 | 37 | 997.9 |
| 20260505011547 | 21 | 300 | 3.2 | 14.5 | 0.00 | 0.00 | 0.00 | 38 | 997.0 |
| 20260505010037 | 22 | 280 | 8.0 | 20.9 | 0.00 | 0.00 | 0.00 | 38 | 996.8 |
| 20260505004544 | 22 | 337 | 9.7 | 17.7 | 0.00 | 0.00 | 0.00 | 36 | 996.4 |
| 20260505003037 | 23 | 243 | 6.4 | 12.9 | 0.00 | 0.00 | 0.00 | 35 | 995.3 |
| 20260505001537 | 23 | 236 | 6.4 | 20.9 | 0.00 | 0.00 | 0.00 | 33 | 995.2 |
| 20260505000035 | 23 | 274 | 11.3 | 19.3 | 0.00 | 0.00 | 0.00 | 33 | 995.3 |
| 20260504234535 | 23 | 255 | 12.9 | 24.1 | 0.00 | 0.00 | 0.00 | 33 | 995.5 |
| 20260504233043 | 24 | 251 | 17.7 | 33.8 | 0.00 | 0.00 | 0.00 | 33 | 995.9 |
| 20260504231539 | 25 | 216 | 22.5 | 43.5 | 0.00 | 0.00 | 0.00 | 34 | 996.1 |
| 20260504230037 | 25 | 261 | 14.5 | 30.6 | 0.00 | 0.00 | 0.00 | 30 | 995.7 |
| 20260504224535 | 25 | 262 | 14.5 | 32.2 | 0.00 | 0.00 | 0.00 | 30 | 995.9 |
| 20260504223036 | 26 | 252 | 17.7 | 41.8 | 0.00 | 0.00 | 0.00 | 29 | 996.0 |
| 20260504221546 | 26 | 239 | 19.3 | 43.5 | 0.00 | 0.00 | 0.00 | 29 | 996.1 |
| 20260504220058 | 26 | 248 | 20.9 | 40.2 | 0.00 | 0.00 | 0.00 | 27 | 996.3 |
| 20260504214539 | 26 | 267 | 16.1 | 37.0 | 0.00 | 0.00 | 0.00 | 28 | 996.6 |
| 20260504213036 | 26 | 257 | 19.3 | 35.4 | 0.00 | 0.00 | 0.00 | 27 | 996.6 |
| 20260504211535 | 25 | 243 | 16.1 | 33.8 | 0.00 | 0.00 | 0.00 | 29 | 996.7 |
| 20260504210032 | 25 | 262 | 22.5 | 35.4 | 0.00 | 0.00 | 0.00 | 28 | 996.9 |
| 20260504204556 | 25 | 266 | 16.1 | 33.8 | 0.00 | 0.00 | 0.00 | 28 | 997.1 |
| 20260504203038 | 25 | 293 | 17.7 | 35.4 | 0.00 | 0.00 | 0.00 | 28 | 997.3 |
| 20260504201537 | 25 | 266 | 12.9 | 35.4 | 0.00 | 0.00 | 0.00 | 28 | 997.4 |
| 20260504200042 | 25 | 251 | 16.1 | 33.8 | 0.00 | 0.00 | 0.00 | 28 | 997.4 |
| 20260504194540 | 25 | 262 | 12.9 | 30.6 | 0.00 | 0.00 | 0.00 | 29 | 997.5 |
| 20260504193041 | 25 | 233 | 12.9 | 37.0 | 0.00 | 0.00 | 0.00 | 27 | 997.6 |
| 20260504191541 | 25 | 233 | 12.9 | 32.2 | 0.00 | 0.00 | 0.00 | 28 | 997.9 |
| 20260504190039 | 25 | 232 | 14.5 | 38.6 | 0.00 | 0.00 | 0.00 | 29 | 997.7 |
| 20260504184537 | 24 | 278 | 11.3 | 35.4 | 0.00 | 0.00 | 0.00 | 29 | 998.0 |
| 20260504183041 | 24 | 216 | 16.1 | 37.0 | 0.00 | 0.00 | 0.00 | 29 | 998.4 |
| 20260504181543 | 23 | 264 | 20.9 | 37.0 | 0.00 | 0.00 | 0.00 | 29 | 998.3 |
| 20260504180039 | 23 | 222 | 12.9 | 40.2 | 0.00 | 0.00 | 0.00 | 29 | 998.4 |
| 20260504174538 | 23 | 257 | 14.5 | 32.2 | 0.00 | 0.00 | 0.00 | 29 | 998.5 |
| 20260504173035 | 23 | 250 | 22.5 | 38.6 | 0.00 | 0.00 | 0.00 | 27 | 998.7 |
| 20260504171535 | 23 | 226 | 14.5 | 33.8 | 0.00 | 0.00 | 0.00 | 28 | 999.0 |
| 20260504081548 | 9 | 218 | 1.6 | 4.8 | 0.00 | 0.00 | 0.00 | 79 | 1003.1 |
| 20260504044535 | 12 | 247 | 3.2 | 3.2 | 0.00 | 0.00 | 0.00 | 66 | 1004.4 |
| 20260504043040 | 12 | 221 | 3.2 | 4.8 | 0.00 | 0.00 | 0.00 | 66 | 1004.3 |
| 20260504041540 | 12 | 221 | 1.6 | 4.8 | 0.00 | 0.00 | 0.00 | 64 | 1004.4 |
| 20260504040041 | 12 | 226 | 3.2 | 4.8 | 0.00 | 0.00 | 0.00 | 63 | 1004.5 |
| 20260504034538 | 12 | 225 | 1.6 | 3.2 | 0.00 | 0.00 | 0.00 | 64 | 1004.6 |
| 20260504033036 | 12 | 219 | 1.6 | 3.2 | 0.00 | 0.00 | 0.00 | 64 | 1004.8 |
| 20260504031535 | 12 | 0 | 0.0 | 1.6 | 0.00 | 0.00 | 0.00 | 65 | 1004.8 |